Location: Fort Worth, Tx
(32.7431°N, 97.3695°W)
Time: 01:44:36
(UTC-04:00)

A-11 Canister half - Pass Details

Date: 29 February 2024
Orbit: 1525 x 1683 km, 47.3° (Epoch: 24 April)

Event Time Altitude Azimuth Distance (km) Brightness Sun altitude
Exits shadow 06:43:25 11° 231° (SW) 3,646 10.5 -16.4°
Drops below altitude 10° 06:44:43 10° 223° (SW) 3,724 10.6 -16.1°
Sets 06:51:07 0° 191° (S) 4,741 11.5 -14.8°
